AQI (74)

Current Conditions for Foresthill, CA. Clear skies, Dry   
Visibility: 10 miles
Space WX Alerts: EXTENDED WARNING:  Geomagnetic K-index of 4 expected ( Latest Alert ) - Issue Time: 2020 Jul 14 1445 UTC

  Summary / Temperature 

Current Temperature
79.6°F
26.4°C
(24/hr Ago)
79.1°F
(Apparent temp)
82.0°F
Comfortable
Heat Index
80.1°F 

85.8°F/ 29.9°C
Noticeable discomfort

 Temp Rate:

 24/hr Difference:

 Avg Running Temp:

 Todays High:

 Todays Low:

 Y-days High:

 Y-days Low:

 Todays HeatIdx:

 Y-days HeatIdx:

 Evapotranspiration:

-3.4°F/hr 

+0.5°F

84.3°F

89.9°F 4:38pm

68.1°F 7:01am

92.4°F 4:54pm

68.2°F 4:51am

88.0°F 4:39pm

88.7°F 4:53pm

0.231 in

115' Above Ground

 Temperature:

 6'AGL VRS 115'AGL:

 Avg Running Temp:

 Humidity:

 Todays High:

 Todays Low:

 Y-days High:

 Y-days Low:

84.0°F 

+4.4°F

85.3°F

39% 

87.0°F 4:11pm

70.0°F 6:31am

88.0°F 4:40pm

71.0°F 4:06am

Temp & Humidity Graphs

  Wind 

Wind Speed

 Calm

Gusting to

 4.0 mph

Calm

239°  

Calm

 Avg speed:

 Wind Run:

 Peak Gust:

Calm 

48.0 miles

  18.0 mph 12:09am

  Almanac  

Moon age: 24 days,1 hours,33 minutes,30%

Waning Crescent
30%
Illuminated
24 days in cycle

 Moonrise:

 Moonset:

 Sunrise:

 Sunset:

 Solar Noon:

1:25am

3:01pm

5:50am

8:29pm

1:10pm

1min 15s less daylight tomorrow 

  Solar Radiation 

(Current Solar)
  42 W/m2 (67%)
(Todays High)
 898 W/m2@12:55pm
Feels like: 87.3°F in the sun

Rain

 Rain Today:

 Rain Rate (/hr):

 Rain last hour:

 Rain Yesterday:

 This Month:

 Season Total:

31 Days Since Last Rain Day

0.00 in

0.000 in

0.00 in

0.00 in

0.00 in

0.00 in

Updated Time

Updated: 7/14/20  7:38pm

(Updated  sec ago)

Humidity & Barometer

 Humidity:

 Wetbulb:

 Dew Point:

 Barometer:

47% 

66.2°F 

57.6°F 

29.821 inHg 

 Baro Trend:  Steady 
Northern Calif
Preparedness
Fire 
Level 

    UV Index  

(Current UV)
0.0  None
(Todays High) @ 12:46pm
8.3   Very High

National Weather Service Forecast

This
Afternoon
This Afternoon: Sunny
Sunny
Tonight

Tonight: Clear
Clear
Wednesday

Wednesday: Sunny
Sunny
Wednesday
Night
Wednesday Night: Mostly Clear
Mostly Clear
Thursday

Thursday: Sunny
Sunny
Thursday
Night
Thursday Night: Mostly Clear
Mostly Clear
Hi 89 °F Lo 67 °F Hi 91 °F Lo 68 °F Hi 90 °F Lo 67 °F

Foresthill Probe 2 Stats  
Foresthill Probe 2: is located on Thomas Street
at 3000 feet. The main Foresthill Weather site
is located on Melody ln at the 2860 foot elevation

Calm
77.9°F
25.5°C
Temp Rate:
-2.4°F
Calm
Gusting to
None
(Humidity)
49%
Calm
229°  
Updated: 14/07/20 - 19:39:57
 Todays High: 88.7°F 14:35
 Todays Low: 65.9°F 06:42
 Rain Today: 0.00 in
 Season Total: 0.00 in

Foresthill Wx: Monthly,Yearly, Highs and Lows 

Foresthill  
This Weather Data is coming from the main Foresthill
Weather site located on Melody ln at the 2860 foot
elevation
Not Foresthill Probe 2
Weather Data
Month
  High
Month
  Low
Year
High
Year
Low
Temp 96.2°F
7/12/20
59.1°F
7/7/20
96.2°F
7/12/20
28.3°F
2/3/20
Humidity 68%
7/3/20
13%
7/11/20
100%
1/8/20
12%
2/17/20
Heat Index 92.2°F
7/12/20
59.2°F
7/7/20
98.7°F
6/26/20
28.2°F
2/4/20
Wind Chill 96.2°F
7/12/20
57.8°F
7/7/20
96.2°F
7/12/20
14.7°F
2/3/20
Wind Gust 22 mph
7/7/20
0 mph
7/1/20
46 mph
2/9/20
0 mph
1/1/20
Barometer 30.05 in
7/4/20
29.74 in
7/1/20
30.59 in
1/5/20
29.57 in
6/28/20
ET 0.27 in
7/12/20
0.00 in
7/1/20
0.31 in
6/27/20
0.00 in
1/1/20
Dew Point 57.9°F
7/14/20
32.4°F
7/4/20
67.5°F
6/26/20
-2.6°F
2/3/20
Visible Satellite Pacific Satellite US Radar Satellite Imagery Sacramento,CA.  (click to enlarge)
NWS Weather Forecast - Summary
Updated: Tuesday, July 14, 2020 - 2:49pm PDT
High elevation Sierra thunderstorms Wednesday and Thursday, mainly south of Interstate 80 Low RH and locally breezy winds Wednesday and Thursday afternoon and evening
NWS Weather Forecast: This Afternoon and Tonight (Updated: Tue, 14-Jul-2020 1:53pm PDT)
This
Afternoon
This Afternoon: Sunny
Sunny

Hi 89 °F
NWS forecast: Sunny, with a high near 89. West southwest wind around 6 mph.
Tonight

Tonight: Clear
Clear

Lo 67 °F
NWS forecast: Clear, with a low around 67. North northeast wind 1 to 6 mph.
YR.NO 10 Day Weather forecast
Last update: 07/14/2020 @ 14:20
Next update: 07/14/2020 @ 20:25
Provided by: 22
      Temperature Precipitation Pressure Wind  
Today
07/14/2020
17:00 18:00 86°F   29.85 inHg Light breeze from west-southwest 6 mph
  18:00 00:00 84°F   29.84 inHg Light breeze from west-southwest 5 mph
    (Click to enlarge)
meteogram

    Forecast for next 9 days

      Temperature Precip Pressure Wind  
Wednesday
07/15/2020
00:00 06:00 68°F   29.89 inHg Light air from east 2 mph
  06:00 12:00 59°F   29.88 inHg Light breeze from east 4 mph
  12:00 18:00 84°F   29.87 inHg Light breeze from west-southwest 6 mph
  18:00 00:00 86°F   29.82 inHg Light breeze from west-southwest 6 mph
      Temperature Precip Pressure Wind  
Thursday
07/16/2020
00:00 06:00 68°F   29.86 inHg Light air from east 3 mph
  06:00 12:00 61°F   29.84 inHg Light air from east 3 mph
  12:00 18:00 88°F   29.85 inHg Light breeze from west-southwest 6 mph
  18:00 00:00 84°F   29.83 inHg Light breeze from southwest 6 mph
  23:00 05:00 70°F   29.88 inHg Light air from east-southeast 3 mph
      Temperature Precip Pressure Wind  
Friday
07/17/2020
05:00 11:00 57°F   29.88 inHg Light air from east 2 mph
  11:00 17:00 86°F   29.92 inHg Light breeze from west-southwest 6 mph
  17:00 23:00 88°F   29.88 inHg Light breeze from southwest 6 mph
  23:00 05:00 72°F   29.94 inHg Light air from east 2 mph
      Temperature Precip Pressure Wind  
Saturday
07/18/2020
05:00 11:00 59°F   29.91 inHg Light breeze from east-northeast 5 mph
  11:00 17:00 91°F   29.92 inHg Light breeze from west 6 mph
  17:00 23:00 93°F   29.87 inHg Light breeze from west 7 mph
  23:00 05:00 73°F   29.91 inHg Light air from east-northeast 2 mph
      Temperature Precip Pressure Wind  
Sunday
07/19/2020
05:00 11:00 61°F   29.89 inHg Light breeze from east 5 mph
  11:00 17:00 90°F   29.91 inHg Light breeze from west-southwest 6 mph
  17:00 23:00 91°F   29.87 inHg Light breeze from west-southwest 7 mph
  23:00 05:00 70°F   29.91 inHg Light breeze from east 4 mph
      Temperature Precip Pressure Wind  
Monday
07/20/2020
05:00 11:00 61°F   29.91 inHg Light breeze from east-northeast 5 mph
  11:00 17:00 88°F   29.91 inHg Light breeze from west-southwest 6 mph
  17:00 23:00 88°F   29.86 inHg Light breeze from west-southwest 6 mph
  23:00 05:00 72°F   29.85 inHg Light air from east 3 mph
      Temperature Precip Pressure Wind  
Tuesday
07/21/2020
05:00 11:00 61°F   29.83 inHg Light air from east 2 mph
  11:00 17:00 84°F   29.83 inHg Light breeze from west 6 mph
  17:00 23:00 88°F   29.78 inHg Light breeze from west-southwest 6 mph
  23:00 05:00 70°F   29.81 inHg Light air from east 3 mph
      Temperature Precip Pressure Wind  
Wednesday
07/22/2020
05:00 11:00 68°F   29.81 inHg Light air from east-northeast 2 mph
  11:00 17:00 84°F   29.83 inHg Light breeze from southwest 6 mph
  17:00 23:00 88°F   29.81 inHg Light breeze from southwest 6 mph
  23:00 05:00 70°F   29.86 inHg Light air from east 2 mph
      Temperature Precip Pressure Wind  
Thursday
07/23/2020
05:00 11:00 61°F   29.86 inHg Light air from east-northeast 3 mph
  11:00 17:00 86°F   29.89 inHg Light breeze from southwest 6 mph
  17:00 23:00 90°F   29.86 inHg Light breeze from west-southwest 6 mph

NOAA Local Storm Report
HEIDELBERG   ( More )
DATE
07/12/2020
TIME
6:48 PM
COUNTY
JASPER
STATE
MS
GEOGRAPHIC
31.89N 88.98W
SOURCE
NWS EMPLOYEE
THUNDERSTORM WIND DAMAGE
corrects previous non-tstm wnd dmg report from heidelberg. Reports of multiple trees down in streets, trees on at least 1 home, and at least 1 car in heidelberg.
How Close Are We To this Month's Temperature Record ?
Updated Tuesday, Jul 14, 2020- 7:35:01 PM

Current Temperature: 79.6°F

July's High: Temperature Record 98.1°F - Set on Wed, Jul 29, 2015 - 2:57:00 PM
We are currently 18.5°F Less than this Month's record High

July's Low: Temperature Record 51.4°F - Set on Sun, Jul 10, 2016 - 7:04:00 AM
We are currently 28.2°F More than this Month's record Low

Weather History For Tuesday, July 14, 2020


On this Day - In Weather History ...
Data courtesy of weatherforyou.com
powered by Cumulus v1.9.3 (1059)
Ambient Weather VWS v14.00
Top Website Map Copyright © 2007 - 2020 Foresthillweather.com Never base important decisions on this or any weather information obtained from the Internet